Index of /20260428/WXO-DD/model_gdps/15km/00/080
Name Last modified Size Description
Parent Directory -
20260428T00Z_MSC_GDPS_AirTemp_AGL-120m_LatLon0.15_PT080H.grib2 2026-04-28 04:10 791K
20260428T00Z_MSC_GDPS_AirTemp_AGL-2m_LatLon0.15_PT080H.grib2 2026-04-28 04:10 1.0M
20260428T00Z_MSC_GDPS_AirTemp_AGL-40m_LatLon0.15_PT080H.grib2 2026-04-28 04:10 809K
20260428T00Z_MSC_GDPS_AirTemp_AGL-80m_LatLon0.15_PT080H.grib2 2026-04-28 04:10 799K
20260428T00Z_MSC_GDPS_Albedo_Sfc_LatLon0.15_PT080H.grib2 2026-04-28 04:10 243K
20260428T00Z_MSC_GDPS_ConvectivePrecip-Accum_Sfc_LatLon0.15_PT080H.grib2 2026-04-28 04:10 3.2M
20260428T00Z_MSC_GDPS_DewPointDepression_AGL-2m_LatLon0.15_PT080H.grib2 2026-04-28 04:10 765K
20260428T00Z_MSC_GDPS_DewPoint_AGL-2m_LatLon0.15_PT080H.grib2 2026-04-28 04:10 610K
20260428T00Z_MSC_GDPS_DownwardLongwaveRadiationFlux-Accum_Sfc_LatLon0.15_PT080H.grib2 2026-04-28 04:10 684K
20260428T00Z_MSC_GDPS_DownwardShortwaveRadiationFlux-Accum_Sfc_LatLon0.15_PT080H.grib2 2026-04-28 04:10 903K
20260428T00Z_MSC_GDPS_FreezingRain-Accum1h_Sfc_LatLon0.15_PT080H.grib2 2026-04-28 04:10 42K
20260428T00Z_MSC_GDPS_FreezingRain-Accum_Sfc_LatLon0.15_PT080H.grib2 2026-04-28 04:10 362K
20260428T00Z_MSC_GDPS_IcePellets-Accum1h_Sfc_LatLon0.15_PT080H.grib2 2026-04-28 04:10 9.4K
20260428T00Z_MSC_GDPS_IcePellets-Accum_Sfc_LatLon0.15_PT080H.grib2 2026-04-28 04:10 88K
20260428T00Z_MSC_GDPS_LatentHeatNetFlux_Sfc_LatLon0.15_PT080H.grib2 2026-04-28 04:10 552K
20260428T00Z_MSC_GDPS_NetLongwaveRadiationFlux-Accum_Sfc_LatLon0.15_PT080H.grib2 2026-04-28 04:10 1.0M
20260428T00Z_MSC_GDPS_NetShortwaveRadiationFlux-Accum_Sfc_LatLon0.15_PT080H.grib2 2026-04-28 04:10 888K
20260428T00Z_MSC_GDPS_O3MixingRatio_LatLon0.15_PT080H.grib2 2026-04-28 04:53 2.3M
20260428T00Z_MSC_GDPS_O3_EAtm_LatLon0.15_PT080H.grib2 2026-04-28 04:53 2.4M
20260428T00Z_MSC_GDPS_PlanetaryBoundaryLayerHeight_Sfc_LatLon0.15_PT080H.grib2 2026-04-28 04:10 2.5M
20260428T00Z_MSC_GDPS_Precip-Accum1h_Sfc_LatLon0.15_PT080H.grib2 2026-04-28 04:10 3.3M
20260428T00Z_MSC_GDPS_Precip-Accum_Sfc_LatLon0.15_PT080H.grib2 2026-04-28 04:10 5.2M
20260428T00Z_MSC_GDPS_PrecipRate_Sfc_LatLon0.15_PT080H.grib2 2026-04-28 04:10 3.0M
20260428T00Z_MSC_GDPS_Pressure_MSL_LatLon0.15_PT080H.grib2 2026-04-28 04:10 825K
20260428T00Z_MSC_GDPS_Pressure_Sfc_LatLon0.15_PT080H.grib2 2026-04-28 04:10 1.1M
20260428T00Z_MSC_GDPS_RadiativeTemp_Sfc_LatLon0.15_PT080H.grib2 2026-04-28 04:10 502K
20260428T00Z_MSC_GDPS_Rain-Accum1h_Sfc_LatLon0.15_PT080H.grib2 2026-04-28 04:10 1.7M
20260428T00Z_MSC_GDPS_Rain-Accum_Sfc_LatLon0.15_PT080H.grib2 2026-04-28 04:10 4.0M
20260428T00Z_MSC_GDPS_RelativeHumidity_AGL-2m_LatLon0.15_PT080H.grib2 2026-04-28 04:10 1.0M
20260428T00Z_MSC_GDPS_Runoff-Accum_Sfc_LatLon0.15_PT080H.grib2 2026-04-28 04:10 117K
20260428T00Z_MSC_GDPS_SensibleHeatNetFlux_Sfc_LatLon0.15_PT080H.grib2 2026-04-28 04:10 666K
20260428T00Z_MSC_GDPS_Snow-Accum1h_Sfc_LatLon0.15_PT080H.grib2 2026-04-28 04:10 1.1M
20260428T00Z_MSC_GDPS_Snow-Accum_Sfc_LatLon0.15_PT080H.grib2 2026-04-28 04:10 2.0M
20260428T00Z_MSC_GDPS_SnowDepth_Sfc_LatLon0.15_PT080H.grib2 2026-04-28 04:10 1.7M
20260428T00Z_MSC_GDPS_SoilTemp_DBS-0to10cm_LatLon0.15_PT080H.grib2 2026-04-28 04:10 506K
20260428T00Z_MSC_GDPS_SoilTemp_Sfc_LatLon0.15_PT080H.grib2 2026-04-28 04:10 590K
20260428T00Z_MSC_GDPS_SoilVolumetricWaterContent_DBS-0to10cm_LatLon0.15_PT080H.grib2 2026-04-28 04:10 584K
20260428T00Z_MSC_GDPS_SoilVolumetricWaterContent_DBS-0to1cm_LatLon0.15_PT080H.grib2 2026-04-28 04:10 649K
20260428T00Z_MSC_GDPS_SpecificHumidity_AGL-120m_LatLon0.15_PT080H.grib2 2026-04-28 04:10 1.1M
20260428T00Z_MSC_GDPS_SpecificHumidity_AGL-2m_LatLon0.15_PT080H.grib2 2026-04-28 04:10 1.2M
20260428T00Z_MSC_GDPS_SpecificHumidity_AGL-40m_LatLon0.15_PT080H.grib2 2026-04-28 04:10 1.1M
20260428T00Z_MSC_GDPS_SpecificHumidity_AGL-80m_LatLon0.15_PT080H.grib2 2026-04-28 04:10 1.1M
20260428T00Z_MSC_GDPS_SpecificHumidity_Sfc_LatLon0.15_PT080H.grib2 2026-04-28 04:10 674K
20260428T00Z_MSC_GDPS_TotalCloudCover_Sfc_LatLon0.15_PT080H.grib2 2026-04-28 04:10 838K
20260428T00Z_MSC_GDPS_UVIndex-ClearSky_Sfc_LatLon0.15_PT080H.grib2 2026-04-28 04:53 1.0M
20260428T00Z_MSC_GDPS_UVIndex_Sfc_LatLon0.15_PT080H.grib2 2026-04-28 04:53 1.5M
20260428T00Z_MSC_GDPS_UpwardLongwaveRadiationFlux_NTAtm_LatLon0.15_PT080H.grib2 2026-04-28 04:10 838K
20260428T00Z_MSC_GDPS_WindDir_AGL-10m_LatLon0.15_PT080H.grib2 2026-04-28 04:10 1.3M
20260428T00Z_MSC_GDPS_WindDir_AGL-120m_LatLon0.15_PT080H.grib2 2026-04-28 04:10 1.3M
20260428T00Z_MSC_GDPS_WindDir_AGL-40m_LatLon0.15_PT080H.grib2 2026-04-28 04:10 1.4M
20260428T00Z_MSC_GDPS_WindDir_AGL-80m_LatLon0.15_PT080H.grib2 2026-04-28 04:10 1.4M
20260428T00Z_MSC_GDPS_WindDir_IsbL-0700_LatLon0.15_PT080H.grib2 2026-04-28 04:10 1.6M
20260428T00Z_MSC_GDPS_WindGust-Max_AGL-10m_LatLon0.15_PT080H.grib2 2026-04-28 04:10 2.2M
20260428T00Z_MSC_GDPS_WindGust-Min_AGL-10m_LatLon0.15_PT080H.grib2 2026-04-28 04:10 2.2M
20260428T00Z_MSC_GDPS_WindGust_AGL-10m_LatLon0.15_PT080H.grib2 2026-04-28 04:10 2.2M
20260428T00Z_MSC_GDPS_WindSpeed_AGL-10m_LatLon0.15_PT080H.grib2 2026-04-28 04:10 1.1M
20260428T00Z_MSC_GDPS_WindSpeed_AGL-120m_LatLon0.15_PT080H.grib2 2026-04-28 04:10 1.2M
20260428T00Z_MSC_GDPS_WindSpeed_AGL-40m_LatLon0.15_PT080H.grib2 2026-04-28 04:10 1.2M
20260428T00Z_MSC_GDPS_WindSpeed_AGL-80m_LatLon0.15_PT080H.grib2 2026-04-28 04:10 1.2M
20260428T00Z_MSC_GDPS_WindSpeed_IsbL-0700_LatLon0.15_PT080H.grib2 2026-04-28 04:10 1.5M
20260428T00Z_MSC_GDPS_WindU_AGL-10m_LatLon0.15_PT080H.grib2 2026-04-28 04:10 1.3M
20260428T00Z_MSC_GDPS_WindU_AGL-120m_LatLon0.15_PT080H.grib2 2026-04-28 04:10 1.0M
20260428T00Z_MSC_GDPS_WindU_AGL-40m_LatLon0.15_PT080H.grib2 2026-04-28 04:10 965K
20260428T00Z_MSC_GDPS_WindU_AGL-80m_LatLon0.15_PT080H.grib2 2026-04-28 04:10 969K
20260428T00Z_MSC_GDPS_WindU_IsbL-0700_LatLon0.15_PT080H.grib2 2026-04-28 04:10 1.2M
20260428T00Z_MSC_GDPS_WindV_AGL-10m_LatLon0.15_PT080H.grib2 2026-04-28 04:10 1.6M
20260428T00Z_MSC_GDPS_WindV_AGL-120m_LatLon0.15_PT080H.grib2 2026-04-28 04:10 966K
20260428T00Z_MSC_GDPS_WindV_AGL-40m_LatLon0.15_PT080H.grib2 2026-04-28 04:10 1.2M
20260428T00Z_MSC_GDPS_WindV_AGL-80m_LatLon0.15_PT080H.grib2 2026-04-28 04:10 965K
20260428T00Z_MSC_GDPS_WindV_IsbL-0700_LatLon0.15_PT080H.grib2 2026-04-28 04:10 1.2M